Weather History for Savannah Hunter, GA

Change the Weather History Date:

Wednesday, March 20, 2013

  Actual Average Record
Temperature  
Mean Temperature 55 °F -  
Max Temperature 65 °F 69 °F 84 °F (2002)
Min Temperature 42 °F 48 °F 42 °F (2005)
Degree Days  
Heating Degree Days 10    
Growing Degree Days 5 (Base 50)    
Moisture  
Dew Point 31 °F    
Average Humidity 41    
Maximum Humidity 81    
Minimum Humidity 24    
Precipitation  
Precipitation 0.00 in - - ()
Sea Level Pressure  
Sea Level Pressure 29.97 in    
Wind  
Wind Speed 7 mph (NE)    
Max Wind Speed 15 mph    
Max Gust Speed 23 mph    
Visibility 10 miles    
Events      
Averages and records for this station are not official NWS values.
T = Trace of Precipitation, MM = Missing Value Source: NWS Daily Summary

Daily Weather History Graph

Daily Weather History Graph

Search for Another Location

Airport:

Trip Planner

Search our weather history database for the weather conditions in past years. The results will help you decide how hot, cold, wet, or windy it might be!

Date:

Astronomy

Mar. 20, 2013 Rise Set
Actual Time 7:28 AM EDT 7:36 PM EDT
Civil Twilight 7:03 AM EDT 8:00 PM EDT
Nautical Twilight 6:35 AM EDT 8:29 PM EDT
Astronomical Twilight 6:06 AM EDT 8:57 PM EDT
Moon 1:28 PM EDT (3/20) 2:47 AM EDT (3/20)
Length of Visible Light 12h 57m
Length of Day
12h 08m
First Quarter, 59% of the Moon is Illuminated
Mar 20
First Quarter
Mar 27
Full
Apr 3
Last Quarter
Apr 10
New
Apr 18
First Quarter

Hourly Weather History & Observations

Time (EDT) Temp. Windchill Dew Point Humidity Pressure Visibility Wind Dir Wind Speed Gust Speed Precip Events Conditions
12:58 AM 59.7 °F - 27.5 °F 29% 30.00 in 10.0 mi North 8.1 mph - N/A   Clear
1:58 AM 58.8 °F - 30.2 °F 34% 30.00 in 10.0 mi NNE 6.9 mph - N/A   Clear
2:58 AM 58.5 °F - 28.9 °F 33% 30.00 in 10.0 mi North 11.5 mph - N/A   Clear
3:58 AM 57.2 °F - 28.8 °F 34% 29.99 in 10.0 mi NNE 6.9 mph - N/A   Clear
4:58 AM 54.9 °F - 28.9 °F 37% 29.99 in 10.0 mi NNE 6.9 mph - N/A   Scattered Clouds
5:58 AM 52.7 °F - 29.5 °F 41% 30.01 in 10.0 mi NNE 5.8 mph - N/A   Clear
6:58 AM 52.5 °F - 29.1 °F 41% 30.03 in 10.0 mi NNE 5.8 mph - N/A   Scattered Clouds
7:58 AM 51.3 °F - 29.1 °F 43% 30.05 in 10.0 mi NNE 6.9 mph - N/A   Clear
8:58 AM 54.1 °F - 27.0 °F 35% 30.08 in 10.0 mi NNE 9.2 mph - N/A   Scattered Clouds
9:58 AM 58.5 °F - 22.8 °F 25% 30.08 in 10.0 mi NE 13.8 mph 20.7 mph N/A   Mostly Cloudy
10:58 AM 59.7 °F - 23.7 °F 25% 30.09 in 10.0 mi NNE 11.5 mph - N/A   Overcast
11:58 AM 61.5 °F - 24.3 °F 24% 30.06 in 10.0 mi NE 15.0 mph 23.0 mph N/A   Mostly Cloudy
12:58 PM 61.2 °F - 26.8 °F 27% 30.04 in 10.0 mi ENE 5.8 mph 18.4 mph N/A   Scattered Clouds
1:58 PM 62.2 °F - 26.6 °F 26% 30.00 in 10.0 mi East 8.1 mph - N/A   Mostly Cloudy
2:58 PM 65.1 °F - 31.6 °F 29% 29.92 in 10.0 mi ENE 9.2 mph - N/A   Scattered Clouds
3:58 PM 64.6 °F - 32.9 °F 31% 29.91 in 10.0 mi Variable 2.3 mph - N/A   Partly Cloudy
4:58 PM 62.6 °F - 35.2 °F 36% 29.92 in 10.0 mi East 5.8 mph - N/A   Partly Cloudy
5:58 PM 57.9 °F - 37.4 °F 46% 29.90 in 10.0 mi SE 6.9 mph - N/A   Clear
6:58 PM 57.0 °F - 36.1 °F 46% 29.90 in 10.0 mi East 4.6 mph - N/A   Clear
7:58 PM 54.3 °F - 37.6 °F 53% 29.88 in 10.0 mi Variable 1.2 mph - N/A   Clear
8:58 PM 52.9 °F - 36.7 °F 54% 29.87 in 10.0 mi Calm Calm - N/A   Clear
9:58 PM 46.4 °F 44.3 °F 38.8 °F 75% 29.87 in 10.0 mi WNW 4.6 mph - N/A   Clear
10:58 PM 45.1 °F - 38.3 °F 77% 29.87 in 10.0 mi WSW 2.3 mph - N/A   Clear
11:55 PM 42.8 °F 39.3 °F 37.4 °F 81% 29.86 in 10.0 mi WSW 5.8 mph - N/A   Clear